DateTimeUTC,F1_A11,F1_S11,BsB_S11,BsG_S11,BsR_S11,BbsB_S11,BbsG_S11,BbsR_S11,BaB_A11,BaG_A11,BaR_A11,Tu_S11,T_S11,Uu_S11,U_S11,P_S11,T1_A11
2021-05-09T03:00:00Z,00000200,21000000,,,,,,,0000.42,0000.31,0000.26,15.6,23.2,,00.0,0670.5,30.9
2021-05-09T03:01:00Z,00000200,21000000,,,,,,,-000.08,0000.24,0000.28,15.6,23.3,,00.0,0670.4,30.9
2021-05-09T03:02:00Z,00000200,21000000,,,,,,,0000.58,-000.03,0000.54,15.6,23.3,,00.0,0670.4,30.9
2021-05-09T03:03:00Z,00000200,61000000,,,,,,,0013.72,0012.85,0009.18,15.6,23.3,,00.0,0670.4,30.9
2021-05-09T03:04:00Z,00000200,41000000,0002.83,0001.68,0000.90,0000.35,0000.35,0000.30,0044.43,0039.96,0030.89,16.0,23.1,,00.0,0671.3,30.9
2021-05-09T03:05:00Z,00000200,01000000,0003.64,0002.23,0001.33,0001.40,0000.80,0000.39,0066.49,0060.68,0046.38,16.1,23.1,,00.0,0671.4,30.9
2021-05-09T03:06:00Z,00000200,01000000,0005.20,0002.73,0001.58,0001.82,0001.12,0000.54,0089.44,0080.60,0062.07,16.0,23.1,,00.0,0671.4,30.9
2021-05-09T03:07:00Z,00000200,01000000,0005.84,0003.70,0001.81,0001.49,0001.23,0000.70,0111.63,0101.25,0077.94,16.0,23.0,,00.0,0671.4,30.9
2021-05-09T03:08:00Z,00000200,01000000,0003.85,0002.93,0001.61,0001.40,0000.98,0000.44,0096.72,0087.63,0067.58,15.9,23.0,,00.0,0671.4,30.9
2021-05-09T03:09:00Z,00000200,01000000,0004.70,0002.75,0001.86,0001.93,0000.99,0000.52,0098.45,0089.27,0068.54,15.8,22.9,,00.0,0671.4,30.8
2021-05-09T03:10:00Z,00000200,01000000,0003.61,0002.19,0001.36,0001.43,0000.93,0000.25,0073.56,0066.74,0051.34,15.8,22.9,,00.0,0671.4,30.8
2021-05-09T03:11:00Z,00000200,01000000,0002.95,0001.69,0001.16,0000.33,0000.82,0000.17,0061.72,0056.52,0043.29,15.7,22.8,,00.0,0671.4,30.8
2021-05-09T03:12:00Z,00000200,01000000,0001.69,0000.45,0000.31,0000.70,0000.21,0000.18,0026.44,0023.82,0018.30,15.7,22.8,,00.0,0671.4,30.9
2021-05-09T03:13:00Z,00000200,01000000,0001.35,0000.42,0000.29,0000.28,0000.49,0000.14,0011.66,0010.52,0008.18,15.7,22.8,,00.0,0671.3,30.9
2021-05-09T03:14:00Z,00000200,01000000,0000.64,0000.51,0000.64,0000.53,0000.21,-000.08,0008.26,0007.45,0005.81,15.7,22.8,,00.0,0671.3,30.9
2021-05-09T03:15:00Z,00000200,01000000,0000.76,0000.58,0000.10,0000.16,0000.57,0000.08,0011.53,0009.84,0007.96,15.8,22.8,,00.0,0671.3,30.9
2021-05-09T03:16:00Z,00000200,01000000,0000.65,0000.20,0000.35,0000.15,0000.11,-000.14,0011.70,0010.77,0007.92,15.8,22.8,,00.0,0671.3,30.9
2021-05-09T03:17:00Z,00000200,01010000,0001.64,0000.77,0000.25,0000.33,0000.39,-000.06,0018.52,0016.85,0013.14,15.9,22.9,,00.0,0671.3,30.9
2021-05-09T03:18:00Z,00000200,01000000,0001.60,0000.89,0000.66,0000.89,0000.50,0000.02,0025.03,0022.42,0017.16,15.9,22.9,,00.0,0671.4,30.9
2021-05-09T03:19:00Z,00000200,01000000,0003.15,0002.24,0001.31,0001.02,0000.71,0000.28,0055.88,0051.12,0039.56,15.9,22.9,,00.0,0671.4,30.9
2021-05-09T03:20:00Z,00000200,01000000,0004.45,0002.57,0001.43,0001.66,0001.16,0000.54,0073.71,0067.29,0051.50,16.0,22.9,,00.0,0671.4,30.9
2021-05-09T03:21:00Z,00000200,01000000,0004.01,0002.62,0001.77,0001.16,0000.94,0000.73,0080.12,0072.44,0056.27,16.0,22.9,,00.0,0671.4,30.9
2021-05-09T03:22:00Z,00000200,01000000,0002.78,0001.81,0001.30,0001.31,0000.60,0000.47,0053.38,0048.68,0038.01,16.0,23.0,,00.0,0671.4,30.9
2021-05-09T03:23:00Z,00000200,01000000,0001.83,0001.11,0000.50,0000.46,0000.36,0000.32,0032.31,0029.24,0022.68,16.0,23.0,,00.0,0671.4,30.9
2021-05-09T03:24:00Z,00000200,01000000,0001.76,0000.98,0000.62,0000.84,0000.05,0000.12,0025.18,0023.03,0017.69,16.0,22.9,,00.0,0671.4,30.9
2021-05-09T03:25:00Z,00000200,01000000,0000.74,0000.56,0000.53,-000.37,0000.16,0000.14,0013.19,0011.68,0008.95,15.9,22.9,,00.0,0671.4,30.9
2021-05-09T03:26:00Z,00000200,01000000,0000.81,0000.42,0000.42,0000.62,0000.34,0000.23,0011.84,0011.29,0008.60,15.9,22.9,,00.0,0671.4,30.8
2021-05-09T03:27:00Z,00000200,01000000,0000.51,0000.35,0000.07,-000.02,0000.10,0000.05,0004.73,0003.90,0003.03,15.9,22.8,,00.0,0671.4,30.9
2021-05-09T03:28:00Z,00000200,01000000,0000.79,0000.45,0000.20,0000.20,0000.18,0000.00,0003.07,0002.96,0002.59,15.9,22.8,,00.0,0671.4,30.9
2021-05-09T03:29:00Z,00000200,01000000,0000.36,0000.27,0000.06,0000.15,0000.17,0000.05,0002.04,0002.01,0001.16,15.9,22.8,,00.0,0671.3,30.9
2021-05-09T03:30:00Z,00000200,01000000,0000.26,0000.16,0000.20,0000.20,0000.33,0000.03,0001.83,0001.26,0001.31,15.9,22.9,,00.0,0671.3,30.9
2021-05-09T03:31:00Z,00000200,01000000,0000.44,0000.51,0000.34,0000.21,0000.17,-000.01,0001.05,0001.34,0000.99,16.0,22.9,,00.0,0671.3,30.9
2021-05-09T03:32:00Z,00000200,01000000,0000.39,0000.22,0000.13,-000.19,-000.03,0000.02,0001.73,0001.49,0000.99,16.0,22.9,,00.0,0671.3,30.9
2021-05-09T03:33:00Z,00000200,01000000,-000.17,0000.04,0000.11,0000.55,-000.09,-000.06,0001.82,0001.56,0001.53,16.0,22.9,,00.0,0671.3,30.9
2021-05-09T03:34:00Z,00000200,01000000,0000.34,0000.05,0000.16,-000.16,0000.18,-000.04,0002.09,0001.56,0000.89,16.1,22.9,,00.0,0671.3,30.9
2021-05-09T03:35:00Z,00000200,01000000,-000.11,0000.22,-000.04,0000.22,-000.07,0000.13,0002.92,0003.13,0002.21,16.1,23.0,,00.0,0671.3,30.9
2021-05-09T03:36:00Z,00000200,01000000,-000.17,-000.08,0000.20,0000.17,0000.23,0000.09,0002.44,0002.09,0001.82,16.2,23.0,,00.0,0671.3,30.9
2021-05-09T03:37:00Z,00000200,01000000,0000.64,-000.07,-000.03,-000.02,0000.00,-000.07,0001.18,0001.11,0000.94,16.2,23.0,,00.0,0671.3,30.9
2021-05-09T03:38:00Z,00000200,01000000,0000.46,0000.01,0000.11,-000.22,0000.21,-000.20,0001.15,0001.18,0000.51,16.2,23.0,,00.0,0671.3,30.9
2021-05-09T03:39:00Z,00000200,01000000,-000.07,-000.10,-000.08,0000.38,-000.02,0000.12,0000.60,0000.43,0000.47,16.1,23.0,,00.0,0671.3,30.9
2021-05-09T03:40:00Z,00000200,01000000,0000.08,0000.30,0000.38,0000.02,0000.20,0000.28,0000.51,0000.61,0000.50,16.1,22.9,,00.0,0671.3,30.9
2021-05-09T03:41:00Z,00000200,01000000,0000.39,-000.11,0000.12,0000.56,0000.23,0000.42,0000.58,0000.52,0000.25,16.0,22.9,,00.0,0671.3,30.9
2021-05-09T03:42:00Z,00000200,01000000,0000.81,-000.03,0000.03,0000.21,0000.03,-000.00,0000.41,0000.42,0000.43,16.0,22.9,,00.0,0671.3,30.9
2021-05-09T03:43:00Z,00000200,01000000,0000.18,0000.25,0000.05,0000.32,0000.22,0000.12,0000.49,0000.62,0000.64,16.0,22.9,,00.0,0671.2,30.9
2021-05-09T03:44:00Z,00000200,01000000,-000.20,0000.28,0000.07,0000.42,-000.05,0000.02,0000.42,0000.09,-000.21,16.0,22.9,,00.0,0671.2,30.9
2021-05-09T03:45:00Z,00000200,01000000,0000.20,0000.17,0000.14,0000.25,0000.01,-000.16,0000.44,0000.34,0000.36,16.1,22.9,,00.0,0671.2,30.9
2021-05-09T03:46:00Z,00000200,01000000,0000.42,0000.44,0000.49,-000.13,0000.38,0000.21,0000.22,0000.38,0000.14,16.1,22.9,,00.0,0671.2,30.9
2021-05-09T03:47:00Z,00000200,01000000,0000.48,-000.03,0000.06,0000.17,0000.15,0000.26,0000.79,0000.64,0000.32,16.1,23.0,,00.0,0671.2,30.9
2021-05-09T03:48:00Z,00000200,01000000,0000.23,0000.30,0000.29,0000.21,0000.22,0000.04,0000.55,-000.04,0000.07,16.2,23.0,,00.0,0671.2,30.9
2021-05-09T03:49:00Z,00000200,01000000,-000.21,0000.04,-000.14,0000.08,0000.16,-000.12,0000.10,0000.30,0000.74,16.2,23.0,,00.0,0671.2,30.9
2021-05-09T03:50:00Z,00000200,01000000,0000.16,0000.29,0000.01,0000.60,0000.26,-000.14,0000.02,0000.51,0000.12,16.2,23.0,,00.0,0671.2,30.9
2021-05-09T03:51:00Z,00000200,01000000,0000.63,0000.24,0000.07,-000.10,0000.12,0000.18,0000.65,0000.16,0000.24,16.1,23.0,,00.0,0671.2,30.9
2021-05-09T03:52:00Z,00000200,01000000,0000.58,0000.16,0000.01,0000.24,-000.21,-000.02,0000.23,0000.28,0000.34,16.1,22.9,,00.0,0671.2,30.9
2021-05-09T03:53:00Z,00000200,01000000,0000.12,0000.25,0000.20,0000.15,0000.21,0000.04,0000.21,0000.46,-000.17,16.0,22.9,,00.0,0671.2,30.8
2021-05-09T03:54:00Z,00000200,01000000,0000.04,0000.06,0000.12,0000.03,0000.15,-000.30,0000.19,-000.07,0000.33,15.9,22.9,,00.0,0671.2,30.8
2021-05-09T03:55:00Z,00000200,01000000,0000.08,-000.29,0000.39,0000.09,0000.21,-000.04,0000.47,0000.11,-000.09,15.9,22.8,,00.0,0671.2,30.8
2021-05-09T03:56:00Z,00000200,01000000,0000.32,0000.11,0000.02,-000.52,0000.00,0000.07,-000.07,0000.38,0000.50,15.8,22.8,,00.0,0671.1,30.8
2021-05-09T03:57:00Z,00000200,41000000,,,,,,,0000.17,0000.06,-000.23,15.8,22.9,,00.0,0671.1,30.8
2021-05-09T03:58:00Z,00000200,61000000,,,,,,,0000.13,0000.28,0000.38,15.5,23.0,,00.0,0670.1,30.8
2021-05-09T03:59:00Z,00000200,21000000,,,,,,,0000.77,0000.16,-000.15,15.5,23.1,,00.0,0670.1,30.9
